Time,TemperatureF,DewpointF,PressureIn,WindDirection,WindDirectionDegrees,WindSpeedMPH,WindSpeedGustMPH,Humidity,HourlyPrecipIn,Conditions,Clouds,dailyrainin,SoftwareType,DateUTC
2013-10-16 00:04:00,31.8,13.3,30.10,NE,45,0.0,0.0,46,0.00,,,0.00,WUHU21623XXSP,2013-10-16 07:04:00,
2013-10-16 00:09:00,31.8,13.8,30.09,SSE,157,0.0,0.0,47,0.00,,,0.00,WUHU21623XXSP,2013-10-16 07:09:00,
2013-10-16 00:15:00,31.6,13.6,30.09,SE,135,0.0,0.0,47,0.00,,,0.00,WUHU21623XXSP,2013-10-16 07:15:00,
2013-10-16 00:20:00,31.6,13.6,30.09,SE,135,0.0,0.0,47,0.00,,,0.00,WUHU21623XXSP,2013-10-16 07:20:00,
2013-10-16 00:25:00,31.5,13.4,30.09,SE,135,0.0,0.0,47,0.00,,,0.00,WUHU21623XXSP,2013-10-16 07:25:00,
2013-10-16 00:30:00,31.3,13.8,30.09,ENE,67,0.0,0.0,48,0.00,,,0.00,WUHU21623XXSP,2013-10-16 07:30:00,
2013-10-16 00:35:00,30.9,13.6,30.09,ENE,67,0.0,0.0,48,0.00,,,0.00,WUHU21623XXSP,2013-10-16 07:35:00,
2013-10-16 00:49:00,30.6,13.1,30.09,SSE,157,0.0,0.0,48,0.00,,,0.00,WUHU21623XXSP,2013-10-16 07:49:00,
2013-10-16 00:54:00,30.4,13.1,30.09,SSE,157,0.0,0.0,48,0.00,,,0.00,WUHU21623XXSP,2013-10-16 07:54:00,
2013-10-16 00:59:00,30.2,13.3,30.09,NE,45,0.0,0.0,49,0.00,,,0.00,WUHU21623XXSP,2013-10-16 07:59:00,
2013-10-16 01:04:00,30.0,13.2,30.09,NE,45,0.0,0.0,49,0.00,,,0.00,WUHU21623XXSP,2013-10-16 08:04:00,
2013-10-16 01:10:00,30.0,13.2,30.09,NE,45,0.0,0.0,49,0.00,,,0.00,WUHU21623XXSP,2013-10-16 08:10:00,
2013-10-16 01:17:00,29.8,13.5,30.09,NE,45,0.0,0.0,50,0.00,,,0.00,WUHU21623XXSP,2013-10-16 08:17:00,
2013-10-16 01:22:00,29.7,13.3,30.09,NE,45,0.0,0.0,50,0.00,,,0.00,WUHU21623XXSP,2013-10-16 08:22:00,
2013-10-16 01:27:00,29.5,13.2,30.09,NE,45,0.0,0.0,50,0.00,,,0.00,WUHU21623XXSP,2013-10-16 08:27:00,
2013-10-16 01:32:00,29.3,13.0,30.08,ENE,67,0.0,0.0,50,0.00,,,0.00,WUHU21623XXSP,2013-10-16 08:32:00,
2013-10-16 01:37:00,29.1,12.8,30.09,West,270,0.0,0.0,50,0.00,,,0.00,WUHU21623XXSP,2013-10-16 08:37:00,
2013-10-16 01:42:00,28.9,12.7,30.08,West,270,0.0,0.0,50,0.00,,,0.00,WUHU21623XXSP,2013-10-16 08:42:00,
2013-10-16 01:47:00,28.8,12.5,30.09,North,0,0.0,0.0,50,0.00,,,0.00,WUHU21623XXSP,2013-10-16 08:47:00,
2013-10-16 01:52:00,28.8,12.5,30.08,North,0,0.0,0.0,50,0.00,,,0.00,WUHU21623XXSP,2013-10-16 08:52:00,
2013-10-16 01:57:00,28.6,12.4,30.08,North,0,0.0,0.0,50,0.00,,,0.00,WUHU21623XXSP,2013-10-16 08:57:00,
2013-10-16 02:02:00,28.6,12.4,30.08,North,0,0.0,0.0,50,0.00,,,0.00,WUHU21623XXSP,2013-10-16 09:02:00,
2013-10-16 02:07:00,28.2,12.4,30.08,North,0,0.0,0.0,50,0.00,,,0.00,WUHU21623XXSP,2013-10-16 09:07:00,
2013-10-16 02:12:00,28.2,12.4,30.09,NW,315,0.0,0.0,51,0.00,,,0.00,WUHU21623XXSP,2013-10-16 09:12:00,
2013-10-16 02:17:00,28.2,12.4,30.09,WNW,292,0.0,0.0,51,0.00,,,0.00,WUHU21623XXSP,2013-10-16 09:17:00,
2013-10-16 02:22:00,28.0,12.3,30.09,WNW,292,0.0,0.0,51,0.00,,,0.00,WUHU21623XXSP,2013-10-16 09:22:00,
2013-10-16 02:27:00,28.0,12.7,30.08,WNW,292,0.0,0.0,52,0.00,,,0.00,WUHU21623XXSP,2013-10-16 09:27:00,
2013-10-16 02:32:00,28.0,12.7,30.08,NW,315,0.0,0.0,52,0.00,,,0.00,WUHU21623XXSP,2013-10-16 09:32:00,
2013-10-16 02:37:00,27.7,12.3,30.08,NW,315,0.0,0.0,52,0.00,,,0.00,WUHU21623XXSP,2013-10-16 09:37:00,
2013-10-16 02:43:00,27.5,12.7,30.08,NW,315,0.0,0.0,53,0.00,,,0.00,WUHU21623XXSP,2013-10-16 09:43:00,
2013-10-16 02:47:00,27.5,12.5,30.08,NW,315,0.0,0.0,53,0.00,,,0.00,WUHU21623XXSP,2013-10-16 09:47:00,
2013-10-16 02:53:00,27.3,12.4,30.08,NW,315,0.0,0.0,53,0.00,,,0.00,WUHU21623XXSP,2013-10-16 09:53:00,
2013-10-16 02:58:00,27.3,12.4,30.08,NW,315,0.0,0.0,53,0.00,,,0.00,WUHU21623XXSP,2013-10-16 09:58:00,
2013-10-16 03:03:00,27.1,12.2,30.08,West,270,0.0,0.0,53,0.00,,,0.00,WUHU21623XXSP,2013-10-16 10:03:00,
2013-10-16 03:08:00,27.0,12.0,30.08,North,0,0.0,0.0,53,0.00,,,0.00,WUHU21623XXSP,2013-10-16 10:08:00,
2013-10-16 03:13:00,27.0,12.0,30.08,NE,45,0.0,0.0,53,0.00,,,0.00,WUHU21623XXSP,2013-10-16 10:13:00,
2013-10-16 03:19:00,26.8,11.8,30.08,SW,225,0.0,0.0,53,0.00,,,0.00,WUHU21623XXSP,2013-10-16 10:19:00,
2013-10-16 03:25:00,26.6,12.1,30.08,SSW,202,0.0,0.0,54,0.00,,,0.00,WUHU21623XXSP,2013-10-16 10:25:00,
2013-10-16 03:30:00,26.4,11.9,30.08,SSW,202,0.0,0.0,54,0.00,,,0.00,WUHU21623XXSP,2013-10-16 10:30:00,
2013-10-16 03:35:00,26.4,11.9,30.07,SW,225,0.0,0.0,54,0.00,,,0.00,WUHU21623XXSP,2013-10-16 10:35:00,
2013-10-16 03:40:00,26.4,11.9,30.08,SSE,157,0.0,0.0,54,0.00,,,0.00,WUHU21623XXSP,2013-10-16 10:40:00,
2013-10-16 03:47:00,26.2,11.7,30.07,SSE,157,0.0,0.0,54,0.00,,,0.00,WUHU21623XXSP,2013-10-16 10:47:00,
2013-10-16 03:53:00,25.9,11.4,30.07,North,0,0.0,0.0,54,0.00,,,0.00,WUHU21623XXSP,2013-10-16 10:53:00,
2013-10-16 03:58:00,25.9,11.4,30.06,SSE,157,0.0,0.0,54,0.00,,,0.00,WUHU21623XXSP,2013-10-16 10:58:00,
2013-10-16 04:03:00,25.7,11.7,30.07,SSE,157,0.0,0.0,55,0.00,,,0.00,WUHU21623XXSP,2013-10-16 11:03:00,
2013-10-16 04:08:00,25.5,11.5,30.06,SSE,157,0.0,0.0,55,0.00,,,0.00,WUHU21623XXSP,2013-10-16 11:08:00,
2013-10-16 04:13:00,25.5,11.5,30.06,SSE,157,0.0,0.0,55,0.00,,,0.00,WUHU21623XXSP,2013-10-16 11:13:00,
2013-10-16 04:21:00,25.2,11.2,30.07,SSE,157,0.0,0.0,55,0.00,,,0.00,WUHU21623XXSP,2013-10-16 11:21:00,
2013-10-16 04:26:00,25.2,11.2,30.07,SSE,157,0.0,0.0,55,0.00,,,0.00,WUHU21623XXSP,2013-10-16 11:26:00,
2013-10-16 04:34:00,24.6,11.0,30.07,NNE,22,0.0,0.0,55,0.00,,,0.00,WUHU21623XXSP,2013-10-16 11:34:00,
2013-10-16 04:39:00,24.6,10.7,30.07,ENE,67,0.0,0.0,55,0.00,,,0.00,WUHU21623XXSP,2013-10-16 11:39:00,
2013-10-16 04:47:00,24.4,10.9,30.07,NNE,22,0.0,0.0,56,0.00,,,0.00,WUHU21623XXSP,2013-10-16 11:47:00,
2013-10-16 04:57:00,24.1,10.6,30.07,NNE,22,0.0,0.0,56,0.00,,,0.00,WUHU21623XXSP,2013-10-16 11:57:00,
2013-10-16 05:02:00,24.1,10.6,30.07,NNE,22,0.0,0.0,56,0.00,,,0.00,WUHU21623XXSP,2013-10-16 12:02:00,
2013-10-16 05:08:00,24.1,10.6,30.07,NW,315,0.0,0.0,56,0.00,,,0.00,WUHU21623XXSP,2013-10-16 12:08:00,
2013-10-16 05:13:00,23.9,10.4,30.07,NW,315,0.0,0.0,56,0.00,,,0.00,WUHU21623XXSP,2013-10-16 12:13:00,
2013-10-16 05:18:00,23.9,10.4,30.07,NW,315,0.0,0.0,56,0.00,,,0.00,WUHU21623XXSP,2013-10-16 12:18:00,
2013-10-16 05:25:00,23.9,10.8,30.07,NW,315,0.0,0.0,57,0.00,,,0.00,WUHU21623XXSP,2013-10-16 12:25:00,
2013-10-16 05:30:00,23.9,10.8,30.07,South,180,0.0,0.0,57,0.00,,,0.00,WUHU21623XXSP,2013-10-16 12:30:00,
2013-10-16 05:35:00,23.9,10.8,30.07,West,270,0.0,0.0,57,0.00,,,0.00,WUHU21623XXSP,2013-10-16 12:35:00,
2013-10-16 05:42:00,23.9,10.8,30.08,NNW,337,0.0,0.0,57,0.00,,,0.00,WUHU21623XXSP,2013-10-16 12:42:00,
2013-10-16 05:51:00,23.7,11.0,30.08,NW,315,0.0,0.0,58,0.00,,,0.00,WUHU21623XXSP,2013-10-16 12:51:00,
2013-10-16 05:56:00,23.7,11.0,30.08,NW,315,0.0,0.0,58,0.00,,,0.00,WUHU21623XXSP,2013-10-16 12:56:00,
2013-10-16 06:01:00,23.7,11.0,30.08,NW,315,0.0,0.0,58,0.00,,,0.00,WUHU21623XXSP,2013-10-16 13:01:00,
2013-10-16 06:06:00,23.7,11.4,30.08,NW,315,0.0,0.0,59,0.00,,,0.00,WUHU21623XXSP,2013-10-16 13:06:00,
2013-10-16 06:12:00,23.5,11.2,30.09,NNE,22,0.0,0.0,59,0.00,,,0.00,WUHU21623XXSP,2013-10-16 13:12:00,
2013-10-16 06:19:00,23.5,11.2,30.09,NNE,22,0.0,0.0,59,0.00,,,0.00,WUHU21623XXSP,2013-10-16 13:19:00,
2013-10-16 06:24:00,23.4,11.1,30.08,NNE,22,0.0,0.0,59,0.00,,,0.00,WUHU21623XXSP,2013-10-16 13:24:00,
2013-10-16 06:29:00,23.0,10.9,30.09,NNE,22,0.0,0.0,59,0.00,,,0.00,WUHU21623XXSP,2013-10-16 13:29:00,
2013-10-16 06:34:00,23.0,10.7,30.09,NNE,22,0.0,0.0,59,0.00,,,0.00,WUHU21623XXSP,2013-10-16 13:34:00,
2013-10-16 06:44:00,22.8,10.5,30.09,NNE,22,0.0,0.0,59,0.00,,,0.00,WUHU21623XXSP,2013-10-16 13:44:00,
2013-10-16 06:49:00,22.6,10.4,30.09,NNE,22,0.0,0.0,59,0.00,,,0.00,WUHU21623XXSP,2013-10-16 13:49:00,
2013-10-16 06:54:00,22.6,10.4,30.09,SE,135,0.0,0.0,59,0.00,,,0.00,WUHU21623XXSP,2013-10-16 13:54:00,
2013-10-16 06:59:00,22.3,10.2,30.09,SE,135,0.0,0.0,59,0.00,,,0.00,WUHU21623XXSP,2013-10-16 13:59:00,
2013-10-16 07:04:00,22.3,10.5,30.09,SE,135,0.0,0.0,60,0.00,,,0.00,WUHU21623XXSP,2013-10-16 14:04:00,
2013-10-16 07:10:00,22.1,10.3,30.09,South,180,0.0,0.0,60,0.00,,,0.00,WUHU21623XXSP,2013-10-16 14:10:00,
2013-10-16 07:15:00,22.1,10.3,30.09,South,180,0.0,0.0,60,0.00,,,0.00,WUHU21623XXSP,2013-10-16 14:15:00,
2013-10-16 07:20:00,22.1,10.3,30.09,NNE,22,0.0,0.0,60,0.00,,,0.00,WUHU21623XXSP,2013-10-16 14:20:00,
2013-10-16 07:25:00,21.9,10.1,30.09,NNE,22,0.0,0.0,60,0.00,,,0.00,WUHU21623XXSP,2013-10-16 14:25:00,
2013-10-16 07:30:00,21.9,10.1,30.09,East,90,0.0,0.0,60,0.00,,,0.00,WUHU21623XXSP,2013-10-16 14:30:00,
2013-10-16 07:35:00,21.9,10.5,30.09,East,90,0.0,0.0,61,0.00,,,0.00,WUHU21623XXSP,2013-10-16 14:35:00,
2013-10-16 07:40:00,21.7,10.3,30.10,East,90,0.0,0.0,61,0.00,,,0.00,WUHU21623XXSP,2013-10-16 14:40:00,
2013-10-16 07:45:00,21.7,10.3,30.10,ENE,67,0.0,0.0,61,0.00,,,0.00,WUHU21623XXSP,2013-10-16 14:45:00,
2013-10-16 07:50:00,21.7,10.3,30.10,ENE,67,0.0,0.0,61,0.00,,,0.00,WUHU21623XXSP,2013-10-16 14:50:00,
2013-10-16 07:55:00,21.7,10.3,30.10,NNE,22,0.0,0.0,61,0.00,,,0.00,WUHU21623XXSP,2013-10-16 14:55:00,
2013-10-16 08:00:00,21.9,10.5,30.10,NNE,22,0.0,0.0,61,0.00,,,0.00,WUHU21623XXSP,2013-10-16 15:00:00,
2013-10-16 08:06:00,22.1,10.7,30.10,NNE,22,0.0,0.0,61,0.00,,,0.00,WUHU21623XXSP,2013-10-16 15:06:00,
2013-10-16 08:11:00,22.3,11.0,30.10,NNE,22,0.0,0.0,62,0.00,,,0.00,WUHU21623XXSP,2013-10-16 15:11:00,
2013-10-16 08:16:00,22.6,11.9,30.10,South,180,0.0,0.0,63,0.00,,,0.00,WUHU21623XXSP,2013-10-16 15:16:00,
2013-10-16 08:21:00,22.8,12.0,30.10,South,180,0.0,0.0,63,0.00,,,0.00,WUHU21623XXSP,2013-10-16 15:21:00,
2013-10-16 08:29:00,23.7,13.2,30.10,SSW,202,0.0,0.0,64,0.00,,,0.00,WUHU21623XXSP,2013-10-16 15:29:00,
2013-10-16 08:34:00,24.1,13.9,30.10,SSW,202,0.0,0.0,65,0.00,,,0.00,WUHU21623XXSP,2013-10-16 15:34:00,
2013-10-16 08:43:00,25.2,15.3,30.10,SSW,202,0.0,0.0,66,0.00,,,0.00,WUHU21623XXSP,2013-10-16 15:43:00,
2013-10-16 08:48:00,25.5,15.7,30.10,SW,225,0.0,0.0,67,0.00,,,0.00,WUHU21623XXSP,2013-10-16 15:48:00,
2013-10-16 08:55:00,27.3,17.8,30.10,East,90,0.0,0.0,67,0.00,,,0.00,WUHU21623XXSP,2013-10-16 15:55:00,
2013-10-16 09:00:00,28.0,18.5,30.10,WNW,292,0.0,0.0,67,0.00,,,0.00,WUHU21623XXSP,2013-10-16 16:00:00,
2013-10-16 09:08:00,29.5,19.5,30.10,West,270,0.0,0.0,66,0.00,,,0.00,WUHU21623XXSP,2013-10-16 16:08:00,
2013-10-16 09:13:00,30.2,20.0,30.10,SW,225,0.0,0.0,66,0.00,,,0.00,WUHU21623XXSP,2013-10-16 16:13:00,
2013-10-16 09:21:00,31.8,21.4,30.10,South,180,0.0,0.0,65,0.00,,,0.00,WUHU21623XXSP,2013-10-16 16:21:00,
2013-10-16 09:27:00,33.1,22.2,30.10,SSE,157,0.0,0.0,64,0.00,,,0.00,WUHU21623XXSP,2013-10-16 16:27:00,
2013-10-16 09:32:00,34.0,22.3,30.10,South,180,0.0,0.0,63,0.00,,,0.00,WUHU21623XXSP,2013-10-16 16:32:00,
2013-10-16 09:38:00,34.5,22.5,30.10,NNW,337,0.0,0.0,61,0.00,,,0.00,WUHU21623XXSP,2013-10-16 16:38:00,
2013-10-16 09:46:00,35.1,22.2,30.10,NNE,22,0.0,0.0,59,0.00,,,0.00,WUHU21623XXSP,2013-10-16 16:46:00,
2013-10-16 09:51:00,35.2,22.4,30.10,North,0,0.0,0.0,59,0.00,,,0.00,WUHU21623XXSP,2013-10-16 16:51:00,
2013-10-16 09:57:00,35.4,22.1,30.09,NNW,337,0.0,0.0,58,0.00,,,0.00,WUHU21623XXSP,2013-10-16 16:57:00,
2013-10-16 10:02:00,36.0,22.0,30.09,NNW,337,0.0,0.0,57,0.00,,,0.00,WUHU21623XXSP,2013-10-16 17:02:00,
2013-10-16 10:07:00,36.1,22.4,30.09,WNW,292,0.0,0.0,57,0.00,,,0.00,WUHU21623XXSP,2013-10-16 17:07:00,
2013-10-16 10:12:00,36.5,22.7,30.09,WNW,292,0.0,0.0,57,0.00,,,0.00,WUHU21623XXSP,2013-10-16 17:12:00,
2013-10-16 10:17:00,36.7,22.4,30.09,WNW,292,0.0,0.0,56,0.00,,,0.00,WUHU21623XXSP,2013-10-16 17:17:00,
2013-10-16 10:23:00,37.2,22.9,30.09,WNW,292,0.0,0.0,56,0.00,,,0.00,WUHU21623XXSP,2013-10-16 17:23:00,
2013-10-16 10:28:00,37.8,22.8,30.08,West,270,0.0,0.0,55,0.00,,,0.00,WUHU21623XXSP,2013-10-16 17:28:00,
2013-10-16 10:33:00,37.9,23.0,30.09,West,270,0.0,0.0,55,0.00,,,0.00,WUHU21623XXSP,2013-10-16 17:33:00,
2013-10-16 10:38:00,38.5,23.6,30.08,South,180,0.0,0.0,55,0.00,,,0.00,WUHU21623XXSP,2013-10-16 17:38:00,
2013-10-16 10:43:00,39.0,24.1,30.08,ESE,112,0.0,0.0,55,0.00,,,0.00,WUHU21623XXSP,2013-10-16 17:43:00,
2013-10-16 10:49:00,40.1,25.6,30.09,SSW,202,0.0,0.0,56,0.00,,,0.00,WUHU21623XXSP,2013-10-16 17:49:00,
2013-10-16 10:53:00,40.8,26.2,30.08,SSW,202,0.0,0.0,55,0.00,,,0.00,WUHU21623XXSP,2013-10-16 17:53:00,
2013-10-16 10:59:00,41.2,26.1,30.08,WSW,247,0.0,0.0,55,0.00,,,0.00,WUHU21623XXSP,2013-10-16 17:59:00,
2013-10-16 11:04:00,41.7,26.0,30.08,SW,225,0.0,0.0,54,0.00,,,0.00,WUHU21623XXSP,2013-10-16 18:04:00,
2013-10-16 11:09:00,41.9,26.2,30.08,SW,225,0.0,0.0,53,0.00,,,0.00,WUHU21623XXSP,2013-10-16 18:09:00,
2013-10-16 11:14:00,42.4,26.0,30.08,NW,315,0.0,0.0,52,0.00,,,0.00,WUHU21623XXSP,2013-10-16 18:14:00,
2013-10-16 11:19:00,43.0,26.1,30.07,SSE,157,0.9,0.9,51,0.00,,,0.00,WUHU21623XXSP,2013-10-16 18:19:00,
2013-10-16 11:24:00,43.3,26.4,30.07,WNW,292,0.0,0.9,51,0.00,,,0.00,WUHU21623XXSP,2013-10-16 18:24:00,
2013-10-16 11:27:00,43.7,26.3,30.07,WNW,292,0.0,0.9,50,0.00,,,0.00,WUHU21623XXSP,2013-10-16 18:27:00,
2013-10-16 11:32:00,44.4,27.0,30.07,WNW,292,2.9,2.9,50,0.00,,,0.00,WUHU21623XXSP,2013-10-16 18:32:00,
2013-10-16 11:37:00,45.0,26.2,30.06,WNW,292,2.9,2.9,48,0.00,,,0.00,WUHU21623XXSP,2013-10-16 18:37:00,
2013-10-16 11:42:00,45.3,26.2,30.06,North,0,0.0,2.9,47,0.00,,,0.00,WUHU21623XXSP,2013-10-16 18:42:00,
2013-10-16 11:47:00,46.0,26.3,30.06,NW,315,0.0,0.0,46,0.00,,,0.00,WUHU21623XXSP,2013-10-16 18:47:00,
2013-10-16 11:57:00,47.5,27.6,30.06,SSE,157,0.0,0.0,46,0.00,,,0.00,WUHU21623XXSP,2013-10-16 18:57:00,
2013-10-16 12:02:00,48.4,28.9,30.05,WNW,292,0.0,0.0,47,0.00,,,0.00,WUHU21623XXSP,2013-10-16 19:02:00,
2013-10-16 12:07:00,49.1,29.6,30.05,SE,135,1.3,1.3,47,0.00,,,0.00,WUHU21623XXSP,2013-10-16 19:07:00,
2013-10-16 12:12:00,50.7,29.5,30.05,NW,315,0.0,1.3,44,0.00,,,0.00,WUHU21623XXSP,2013-10-16 19:12:00,
2013-10-16 12:17:00,51.4,30.1,30.05,East,90,0.0,0.0,44,0.00,,,0.00,WUHU21623XXSP,2013-10-16 19:17:00,
2013-10-16 12:23:00,52.5,30.0,30.05,WNW,292,0.0,0.0,42,0.00,,,0.00,WUHU21623XXSP,2013-10-16 19:23:00,
2013-10-16 12:28:00,53.2,29.5,30.05,ESE,112,0.0,0.0,40,0.00,,,0.00,WUHU21623XXSP,2013-10-16 19:28:00,
2013-10-16 12:33:00,53.8,30.0,30.04,WNW,292,0.0,0.0,40,0.00,,,0.00,WUHU21623XXSP,2013-10-16 19:33:00,
2013-10-16 12:38:00,54.5,30.6,30.04,NW,315,0.0,0.0,40,0.00,,,0.00,WUHU21623XXSP,2013-10-16 19:38:00,
2013-10-16 12:43:00,55.2,31.0,30.04,South,180,0.0,0.0,40,0.00,,,0.00,WUHU21623XXSP,2013-10-16 19:43:00,
2013-10-16 12:48:00,55.9,31.2,30.04,SW,225,0.0,0.0,39,0.00,,,0.00,WUHU21623XXSP,2013-10-16 19:48:00,
2013-10-16 12:53:00,56.5,31.7,30.03,East,90,0.0,0.0,39,0.00,,,0.00,WUHU21623XXSP,2013-10-16 19:53:00,
2013-10-16 12:58:00,57.0,32.2,30.04,West,270,0.0,0.0,39,0.00,,,0.00,WUHU21623XXSP,2013-10-16 19:58:00,
2013-10-16 13:04:00,57.9,32.2,30.04,NNW,337,0.0,0.0,38,0.00,,,0.00,WUHU21623XXSP,2013-10-16 20:04:00,
2013-10-16 13:09:00,58.1,32.3,30.03,NNW,337,0.0,0.0,38,0.00,,,0.00,WUHU21623XXSP,2013-10-16 20:09:00,
2013-10-16 13:16:00,59.2,32.7,30.02,WNW,292,0.0,0.0,37,0.00,,,0.00,WUHU21623XXSP,2013-10-16 20:16:00,
2013-10-16 13:21:00,59.5,32.3,30.02,WNW,292,3.6,3.6,36,0.00,,,0.00,WUHU21623XXSP,2013-10-16 20:21:00,
2013-10-16 13:26:00,59.9,31.2,30.02,WNW,292,1.1,3.6,34,0.00,,,0.00,WUHU21623XXSP,2013-10-16 20:26:00,
2013-10-16 13:31:00,60.3,30.8,30.02,WNW,292,0.0,1.1,33,0.00,,,0.00,WUHU21623XXSP,2013-10-16 20:31:00,
2013-10-16 13:38:00,61.0,31.4,30.02,WNW,292,0.0,0.0,33,0.00,,,0.00,WUHU21623XXSP,2013-10-16 20:38:00,
2013-10-16 13:46:00,62.1,31.7,30.01,WNW,292,0.0,0.0,32,0.00,,,0.00,WUHU21623XXSP,2013-10-16 20:46:00,
2013-10-16 13:51:00,62.4,32.7,30.01,SSE,157,0.0,0.0,33,0.00,,,0.00,WUHU21623XXSP,2013-10-16 20:51:00,
2013-10-16 13:56:00,63.1,33.1,30.01,South,180,0.9,0.9,33,0.00,,,0.00,WUHU21623XXSP,2013-10-16 20:56:00,
2013-10-16 14:01:00,64.0,33.5,30.01,West,270,0.0,0.9,32,0.00,,,0.00,WUHU21623XXSP,2013-10-16 21:01:00,
2013-10-16 14:06:00,64.2,32.9,30.01,NNW,337,0.0,0.0,29,0.00,,,0.00,WUHU21623XXSP,2013-10-16 21:06:00,
2013-10-16 14:11:00,64.6,31.5,30.00,SSE,157,0.0,0.0,29,0.00,,,0.00,WUHU21623XXSP,2013-10-16 21:11:00,
2013-10-16 14:16:00,64.8,32.7,30.00,West,270,1.3,1.3,30,0.00,,,0.00,WUHU21623XXSP,2013-10-16 21:16:00,
2013-10-16 14:21:00,64.9,31.8,30.00,West,270,0.0,1.3,29,0.00,,,0.00,WUHU21623XXSP,2013-10-16 21:21:00,
2013-10-16 14:29:00,66.0,33.8,30.00,WNW,292,2.5,2.5,30,0.00,,,0.00,WUHU21623XXSP,2013-10-16 21:29:00,
2013-10-16 14:34:00,66.4,32.1,30.00,WNW,292,1.1,2.5,28,0.00,,,0.00,WUHU21623XXSP,2013-10-16 21:34:00,
2013-10-16 14:39:00,66.7,31.2,30.00,WNW,292,0.0,1.1,27,0.00,,,0.00,WUHU21623XXSP,2013-10-16 21:39:00,
2013-10-16 14:46:00,67.5,33.0,30.00,ENE,67,0.0,0.0,28,0.00,,,0.00,WUHU21623XXSP,2013-10-16 21:46:00,
2013-10-16 14:51:00,67.8,31.3,30.00,NW,315,4.3,4.3,26,0.00,,,0.00,WUHU21623XXSP,2013-10-16 21:51:00,
2013-10-16 14:56:00,68.0,30.5,30.00,North,0,0.0,4.3,25,0.00,,,0.00,WUHU21623XXSP,2013-10-16 21:56:00,
2013-10-16 15:01:00,68.2,31.6,30.00,NNE,22,1.1,1.1,26,0.00,,,0.00,WUHU21623XXSP,2013-10-16 22:01:00,
2013-10-16 15:08:00,68.4,31.8,29.99,ENE,67,0.0,1.1,26,0.00,,,0.00,WUHU21623XXSP,2013-10-16 22:08:00,
2013-10-16 15:13:00,68.4,31.8,29.99,WNW,292,1.3,1.3,26,0.00,,,0.00,WUHU21623XXSP,2013-10-16 22:13:00,
2013-10-16 15:18:00,68.5,29.9,29.99,NNW,337,0.9,1.3,24,0.00,,,0.00,WUHU21623XXSP,2013-10-16 22:18:00,
2013-10-16 15:23:00,68.4,29.8,29.99,NNE,22,2.7,2.7,24,0.00,,,0.00,WUHU21623XXSP,2013-10-16 22:23:00,
2013-10-16 15:28:00,68.5,29.9,29.99,South,180,0.0,2.7,24,0.00,,,0.00,WUHU21623XXSP,2013-10-16 22:28:00,
2013-10-16 15:33:00,68.5,30.9,29.99,WNW,292,0.0,0.0,25,0.00,,,0.00,WUHU21623XXSP,2013-10-16 22:33:00,
2013-10-16 15:38:00,68.7,31.1,29.99,West,270,0.0,0.0,25,0.00,,,0.00,WUHU21623XXSP,2013-10-16 22:38:00,
2013-10-16 15:43:00,68.9,31.2,29.99,WSW,247,0.0,0.0,25,0.00,,,0.00,WUHU21623XXSP,2013-10-16 22:43:00,
2013-10-16 15:50:00,69.3,30.5,29.99,WNW,292,1.8,1.8,24,0.00,,,0.00,WUHU21623XXSP,2013-10-16 22:50:00,
2013-10-16 15:55:00,69.4,30.7,29.99,NW,315,0.0,1.8,24,0.00,,,0.00,WUHU21623XXSP,2013-10-16 22:55:00,
2013-10-16 16:00:00,69.6,29.8,29.99,WNW,292,3.1,3.1,23,0.00,,,0.00,WUHU21623XXSP,2013-10-16 23:00:00,
2013-10-16 16:05:00,69.6,30.8,29.99,NE,45,0.0,3.1,24,0.00,,,0.00,WUHU21623XXSP,2013-10-16 23:05:00,
2013-10-16 16:11:00,69.6,30.8,29.99,WNW,292,0.0,0.0,24,0.00,,,0.00,WUHU21623XXSP,2013-10-16 23:11:00,
2013-10-16 16:16:00,69.6,30.8,29.99,WNW,292,2.5,2.5,24,0.00,,,0.00,WUHU21623XXSP,2013-10-16 23:16:00,
2013-10-16 16:21:00,69.6,29.8,29.99,WNW,292,4.7,4.7,23,0.00,,,0.00,WUHU21623XXSP,2013-10-16 23:21:00,
2013-10-16 16:26:00,69.4,29.7,29.99,WNW,292,8.9,8.9,23,0.00,,,0.00,WUHU21623XXSP,2013-10-16 23:26:00,
2013-10-16 16:31:00,69.4,28.7,29.99,North,0,4.5,8.9,22,0.00,,,0.00,WUHU21623XXSP,2013-10-16 23:31:00,
2013-10-16 16:36:00,69.1,28.4,29.99,WNW,292,5.1,5.1,22,0.00,,,0.00,WUHU21623XXSP,2013-10-16 23:36:00,
2013-10-16 16:41:00,68.9,28.4,29.99,NNW,337,3.6,5.1,22,0.00,,,0.00,WUHU21623XXSP,2013-10-16 23:41:00,
2013-10-16 16:46:00,68.5,27.9,29.99,NW,315,11.4,11.4,22,0.00,,,0.00,WUHU21623XXSP,2013-10-16 23:46:00,
2013-10-16 16:51:00,68.2,27.6,29.99,WNW,292,6.5,11.4,22,0.00,,,0.00,WUHU21623XXSP,2013-10-16 23:51:00,
2013-10-16 16:56:00,68.2,27.6,29.99,WNW,292,1.6,6.5,22,0.00,,,0.00,WUHU21623XXSP,2013-10-16 23:56:00,
2013-10-16 17:01:00,67.8,27.3,30.00,WNW,292,8.7,8.7,22,0.00,,,0.00,WUHU21623XXSP,2013-10-17 00:01:00,
2013-10-16 17:06:00,67.6,27.2,29.99,NW,315,9.8,9.8,22,0.00,,,0.00,WUHU21623XXSP,2013-10-17 00:06:00,
2013-10-16 17:18:00,66.7,27.4,29.99,NNE,22,0.0,0.0,23,0.00,,,0.00,WUHU21623XXSP,2013-10-17 00:18:00,
2013-10-16 17:23:00,66.7,27.4,29.99,WNW,292,2.9,2.9,23,0.00,,,0.00,WUHU21623XXSP,2013-10-17 00:23:00,
2013-10-16 17:29:00,66.2,26.9,30.00,NW,315,2.9,2.9,23,0.00,,,0.00,WUHU21623XXSP,2013-10-17 00:29:00,
2013-10-16 17:34:00,66.0,26.8,30.00,NNW,337,3.8,3.8,23,0.00,,,0.00,WUHU21623XXSP,2013-10-17 00:34:00,
2013-10-16 17:39:00,65.8,26.6,29.99,NNW,337,7.4,7.4,23,0.00,,,0.00,WUHU21623XXSP,2013-10-17 00:39:00,
2013-10-16 17:44:00,65.5,26.5,29.99,WNW,292,0.0,7.4,24,0.00,,,0.00,WUHU21623XXSP,2013-10-17 00:44:00,
2013-10-16 17:49:00,65.5,27.3,29.99,NW,315,4.5,4.5,24,0.00,,,0.00,WUHU21623XXSP,2013-10-17 00:49:00,
2013-10-16 17:54:00,65.3,27.2,30.00,North,0,3.1,4.5,24,0.00,,,0.00,WUHU21623XXSP,2013-10-17 00:54:00,
2013-10-16 17:59:00,65.1,27.0,29.99,West,270,2.2,3.1,24,0.00,,,0.00,WUHU21623XXSP,2013-10-17 00:59:00,
2013-10-16 18:04:00,64.9,26.9,30.00,North,0,3.1,3.1,24,0.00,,,0.00,WUHU21623XXSP,2013-10-17 01:04:00,
2013-10-16 18:09:00,64.8,27.7,29.99,NW,315,6.3,6.3,25,0.00,,,0.00,WUHU21623XXSP,2013-10-17 01:09:00,
2013-10-16 18:14:00,64.4,27.4,29.99,West,270,0.0,6.3,25,0.00,,,0.00,WUHU21623XXSP,2013-10-17 01:14:00,
2013-10-16 18:22:00,63.7,27.1,30.00,NNE,22,2.7,2.7,25,0.00,,,0.00,WUHU21623XXSP,2013-10-17 01:22:00,
2013-10-16 18:35:00,63.1,28.3,30.00,WNW,292,2.5,2.5,27,0.00,,,0.00,WUHU21623XXSP,2013-10-17 01:35:00,
2013-10-16 18:40:00,63.0,28.1,30.00,North,0,3.1,3.1,27,0.00,,,0.00,WUHU21623XXSP,2013-10-17 01:40:00,
2013-10-16 18:45:00,62.8,28.9,30.00,WNW,292,7.6,7.6,28,0.00,,,0.00,WUHU21623XXSP,2013-10-17 01:45:00,
2013-10-16 18:50:00,62.4,27.7,30.00,NW,315,3.6,7.6,27,0.00,,,0.00,WUHU21623XXSP,2013-10-17 01:50:00,
2013-10-16 18:55:00,62.2,28.5,30.00,NNW,337,5.1,5.1,28,0.00,,,0.00,WUHU21623XXSP,2013-10-17 01:55:00,
2013-10-16 19:09:00,61.0,25.4,30.01,WNW,292,0.0,0.0,26,0.00,,,0.00,WUHU21623XXSP,2013-10-17 02:09:00,
2013-10-16 19:14:00,61.0,26.4,30.01,WNW,292,2.5,2.5,27,0.00,,,0.00,WUHU21623XXSP,2013-10-17 02:14:00,
2013-10-16 19:19:00,60.4,26.0,30.01,NNE,22,5.6,5.6,27,0.00,,,0.00,WUHU21623XXSP,2013-10-17 02:19:00,
2013-10-16 19:29:00,60.4,25.0,30.00,NNW,337,0.0,0.0,26,0.00,,,0.00,WUHU21623XXSP,2013-10-17 02:29:00,
2013-10-16 19:34:00,60.1,24.7,30.00,WNW,292,8.7,8.7,26,0.00,,,0.00,WUHU21623XXSP,2013-10-17 02:34:00,
2013-10-16 19:41:00,60.1,26.6,30.01,North,0,3.1,8.7,28,0.00,,,0.00,WUHU21623XXSP,2013-10-17 02:41:00,
2013-10-16 19:46:00,60.1,26.6,30.01,NNW,337,3.6,3.6,28,0.00,,,0.00,WUHU21623XXSP,2013-10-17 02:46:00,
2013-10-16 19:52:00,60.1,25.6,30.01,North,0,1.6,3.6,27,0.00,,,0.00,WUHU21623XXSP,2013-10-17 02:52:00,
2013-10-16 19:57:00,60.1,25.6,30.01,NW,315,3.6,3.6,27,0.00,,,0.00,WUHU21623XXSP,2013-10-17 02:57:00,
2013-10-16 20:02:00,59.9,25.5,30.01,NW,315,4.7,4.7,27,0.00,,,0.00,WUHU21623XXSP,2013-10-17 03:02:00,
2013-10-16 20:07:00,59.4,25.2,30.01,NNW,337,7.2,7.2,27,0.00,,,0.00,WUHU21623XXSP,2013-10-17 03:07:00,
2013-10-16 20:12:00,59.2,24.9,30.01,West,270,4.3,7.2,27,0.00,,,0.00,WUHU21623XXSP,2013-10-17 03:12:00,
2013-10-16 20:20:00,58.6,24.4,30.01,NNW,337,4.0,4.3,27,0.00,,,0.00,WUHU21623XXSP,2013-10-17 03:20:00,
2013-10-16 20:35:00,57.7,23.7,30.02,NW,315,2.2,2.2,27,0.00,,,0.00,WUHU21623XXSP,2013-10-17 03:35:00,
2013-10-16 20:40:00,57.6,23.5,30.02,NNW,337,3.6,3.6,27,0.00,,,0.00,WUHU21623XXSP,2013-10-17 03:40:00,
2013-10-16 20:46:00,57.0,23.0,30.02,NW,315,2.9,3.6,27,0.00,,,0.00,WUHU21623XXSP,2013-10-17 03:46:00,
2013-10-16 20:52:00,56.8,22.9,30.02,North,0,2.9,2.9,27,0.00,,,0.00,WUHU21623XXSP,2013-10-17 03:52:00,
2013-10-16 20:58:00,56.5,23.5,30.02,WNW,292,8.3,8.3,28,0.00,,,0.00,WUHU21623XXSP,2013-10-17 03:58:00,
2013-10-16 21:01:00,56.5,23.5,30.02,WNW,292,8.3,8.3,28,0.00,,,0.00,WUHU21623XXSP,2013-10-17 04:01:00,
2013-10-16 21:02:00,56.5,23.5,30.02,WNW,292,8.3,8.3,28,0.00,,,0.00,WUHU21623XXSP,2013-10-17 04:02:00,
2013-10-16 21:07:00,56.1,23.2,30.03,NNW,337,4.3,8.3,28,0.00,,,0.00,WUHU21623XXSP,2013-10-17 04:07:00,
2013-10-16 21:12:00,55.9,23.0,30.02,WNW,292,2.2,4.3,28,0.00,,,0.00,WUHU21623XXSP,2013-10-17 04:12:00,
2013-10-16 21:18:00,55.9,23.0,30.03,WNW,292,3.1,3.1,28,0.00,,,0.00,WUHU21623XXSP,2013-10-17 04:18:00,
2013-10-16 21:23:00,55.8,22.9,30.03,WNW,292,6.0,6.0,28,0.00,,,0.00,WUHU21623XXSP,2013-10-17 04:23:00,
2013-10-16 21:28:00,55.6,22.7,30.03,North,0,6.7,6.7,28,0.00,,,0.00,WUHU21623XXSP,2013-10-17 04:28:00,
2013-10-16 21:37:00,55.2,22.4,30.03,NNW,337,2.5,2.5,28,0.00,,,0.00,WUHU21623XXSP,2013-10-17 04:37:00,
2013-10-16 21:42:00,55.0,22.3,30.04,WNW,292,1.6,2.5,28,0.00,,,0.00,WUHU21623XXSP,2013-10-17 04:42:00,
2013-10-16 21:48:00,54.5,22.8,30.04,NNW,337,0.9,1.6,29,0.00,,,0.00,WUHU21623XXSP,2013-10-17 04:48:00,
2013-10-16 21:53:00,54.1,22.5,30.04,NW,315,2.5,2.5,29,0.00,,,0.00,WUHU21623XXSP,2013-10-17 04:53:00,
2013-10-16 21:58:00,54.0,22.3,30.04,WNW,292,0.0,2.5,29,0.00,,,0.00,WUHU21623XXSP,2013-10-17 04:58:00,
2013-10-16 22:03:00,53.6,22.0,30.04,WNW,292,1.6,1.6,29,0.00,,,0.00,WUHU21623XXSP,2013-10-17 05:03:00,
2013-10-16 22:08:00,53.4,22.8,30.04,NW,315,0.0,1.6,30,0.00,,,0.00,WUHU21623XXSP,2013-10-17 05:08:00,
2013-10-16 22:13:00,53.2,22.7,30.04,NNW,337,0.0,0.0,30,0.00,,,0.00,WUHU21623XXSP,2013-10-17 05:13:00,
2013-10-16 22:18:00,52.9,22.4,30.04,WNW,292,0.0,0.0,30,0.00,,,0.00,WUHU21623XXSP,2013-10-17 05:18:00,
2013-10-16 22:23:00,52.5,22.2,30.04,North,0,0.0,0.0,30,0.00,,,0.00,WUHU21623XXSP,2013-10-17 05:23:00,
2013-10-16 22:28:00,52.3,22.5,30.04,NNE,22,0.0,0.0,31,0.00,,,0.00,WUHU21623XXSP,2013-10-17 05:28:00,
2013-10-16 22:33:00,52.0,22.4,30.04,SSE,157,0.0,0.0,31,0.00,,,0.00,WUHU21623XXSP,2013-10-17 05:33:00,
2013-10-16 22:38:00,51.6,21.9,30.04,SE,135,0.0,0.0,31,0.00,,,0.00,WUHU21623XXSP,2013-10-17 05:38:00,
2013-10-16 22:50:00,50.2,21.3,30.04,SSE,157,0.0,0.0,32,0.00,,,0.00,WUHU21623XXSP,2013-10-17 05:50:00,
2013-10-16 22:56:00,49.5,20.7,30.04,WSW,247,0.0,0.0,32,0.00,,,0.00,WUHU21623XXSP,2013-10-17 05:56:00,
2013-10-16 23:01:00,49.1,21.1,30.04,South,180,0.0,0.0,33,0.00,,,0.00,WUHU21623XXSP,2013-10-17 06:01:00,
2013-10-16 23:06:00,48.7,20.8,30.04,SSE,157,0.0,0.0,33,0.00,,,0.00,WUHU21623XXSP,2013-10-17 06:06:00,
2013-10-16 23:11:00,48.4,20.5,30.04,SSE,157,0.0,0.0,33,0.00,,,0.00,WUHU21623XXSP,2013-10-17 06:11:00,
2013-10-16 23:16:00,48.0,20.2,30.04,North,0,0.0,0.0,33,0.00,,,0.00,WUHU21623XXSP,2013-10-17 06:16:00,
2013-10-16 23:22:00,47.5,20.5,30.04,SSW,202,0.0,0.0,34,0.00,,,0.00,WUHU21623XXSP,2013-10-17 06:22:00,
2013-10-16 23:28:00,47.1,20.0,30.05,WNW,292,0.0,0.0,34,0.00,,,0.00,WUHU21623XXSP,2013-10-17 06:28:00,
2013-10-16 23:35:00,46.8,20.4,30.05,West,270,0.0,0.0,35,0.00,,,0.00,WUHU21623XXSP,2013-10-17 06:35:00,
2013-10-16 23:40:00,46.6,20.2,30.05,West,270,0.0,0.0,35,0.00,,,0.00,WUHU21623XXSP,2013-10-17 06:40:00,
2013-10-16 23:45:00,46.2,19.9,30.05,SSW,202,0.0,0.0,35,0.00,,,0.00,WUHU21623XXSP,2013-10-17 06:45:00,
2013-10-16 23:50:00,45.9,19.5,30.05,ESE,112,0.0,0.0,35,0.00,,,0.00,WUHU21623XXSP,2013-10-17 06:50:00,